TimeEDT,TemperatureF,Dew PointF,Humidity,Sea Level PressureIn,VisibilityMPH,Wind Direction,Wind SpeedMPH,Gust SpeedMPH,PrecipitationIn,Events,Conditions,WindDirDegrees,DateUTC
12:51 AM,32.0,19.0,59,30.23,10.0,NNW,8.1,-,N/A,,Clear,330,2013-04-06 04:51:00
1:51 AM,30.0,18.0,61,30.23,10.0,NNW,6.9,-,N/A,,Clear,330,2013-04-06 05:51:00
2:51 AM,28.0,17.1,63,30.24,10.0,NNW,4.6,-,N/A,,Clear,330,2013-04-06 06:51:00
3:51 AM,28.0,17.1,63,30.23,10.0,Calm,Calm,-,N/A,,Clear,0,2013-04-06 07:51:00
4:51 AM,27.0,17.1,66,30.25,10.0,Calm,Calm,-,N/A,,Clear,0,2013-04-06 08:51:00
5:51 AM,26.1,17.1,69,30.26,10.0,Calm,Calm,-,N/A,,Clear,0,2013-04-06 09:51:00
6:51 AM,25.0,16.0,69,30.28,10.0,Calm,Calm,-,N/A,,Partly Cloudy,0,2013-04-06 10:51:00
7:51 AM,27.0,19.0,72,30.31,10.0,Calm,Calm,-,N/A,,Mostly Cloudy,0,2013-04-06 11:51:00
8:51 AM,32.0,19.9,61,30.32,10.0,East,5.8,-,N/A,,Mostly Cloudy,100,2013-04-06 12:51:00
9:51 AM,36.0,15.1,43,30.32,10.0,ESE,3.5,-,N/A,,Mostly Cloudy,120,2013-04-06 13:51:00
10:51 AM,39.9,14.0,35,30.32,10.0,East,5.8,-,N/A,,Mostly Cloudy,100,2013-04-06 14:51:00
11:51 AM,43.0,10.0,26,30.31,10.0,SE,4.6,-,N/A,,Scattered Clouds,140,2013-04-06 15:51:00
12:51 PM,46.9,9.0,21,30.28,10.0,SE,5.8,-,N/A,,Scattered Clouds,130,2013-04-06 16:51:00
1:51 PM,50.0,7.0,18,30.24,10.0,Variable,4.6,-,N/A,,Mostly Cloudy,0,2013-04-06 17:51:00
2:51 PM,52.0,5.0,15,30.22,10.0,SSE,9.2,-,N/A,,Mostly Cloudy,160,2013-04-06 18:51:00
3:51 PM,54.0,6.1,15,30.18,10.0,SSW,8.1,-,N/A,,Mostly Cloudy,200,2013-04-06 19:51:00
4:51 PM,55.9,7.0,14,30.16,10.0,Calm,Calm,-,N/A,,Mostly Cloudy,0,2013-04-06 20:51:00
5:51 PM,57.0,6.1,13,30.15,10.0,South,6.9,-,N/A,,Mostly Cloudy,190,2013-04-06 21:51:00
6:51 PM,57.0,9.0,15,30.14,10.0,SSE,5.8,-,N/A,,Mostly Cloudy,160,2013-04-06 22:51:00
7:51 PM,55.0,10.9,17,30.12,10.0,ESE,4.6,-,N/A,,Mostly Cloudy,120,2013-04-06 23:51:00
8:51 PM,53.6,12.2,19,30.05,10.0,ESE,5.8,-,N/A,,Mostly Cloudy,120,2013-04-07 00:51:00
9:51 PM,52.0,12.9,21,30.08,10.0,ESE,5.8,-,N/A,,Mostly Cloudy,120,2013-04-07 01:51:00
10:51 PM,53.1,14.0,21,30.06,10.0,SE,10.4,-,N/A,,Overcast,130,2013-04-07 02:51:00
11:51 PM,53.1,15.1,22,30.04,10.0,SE,8.1,-,N/A,,Overcast,130,2013-04-07 03:51:00